地平线卫星 10星 (GORIZONT 10)

导读

GORIZONT 10是CIS(独立国家联合体)于1984年8月1日发射的通信卫星,隶属于GORIZONT系列。GORIZONT系列卫星作为苏联/俄罗斯空间通信基础设施的重要组成部分,主要承担战术层面通信支持任务,覆盖范围广阔,为军事行动、区域通信提供稳定可靠的通信服务,助力提升作战响应效率,是冷战末期独联体航天通信布局的关键节点。

基本信息
目录编号:
15144
目录名称:
GORIZONT 10
国际标识:
1984-078A
轨道中心:
EARTH
卫星名称:
地平线卫星 10星
卫星全名:
地平线卫星 10星 (GORIZONT 10)
卫星状态:
在轨 (已飞行15299 天)
发射日期:
1984-08-01 UTC
国别 :
俄罗斯(独联体) (CIS)
星等 :
--
轨道信息
数据来源 国际轨道数据 AOE轨道数据
星历时间 2026-06-20T11:29:03+0800
1天前
查看轨道信息
2026-06-20T23:00:00+0800
20小时前
查看轨道信息
半长轴 42173.14km 42173km
偏心率 0.0002957 0.00028
轨道倾角 8.882° 8.882°
近地点辐角 341.013° 342.740°
升交点赤经 313.389° 313.387°
平近点角 219.864° 31.296°
近地点 35782.532km 35783.054km
远地点 35807.474km 35806.672km
周期 1436.526分钟 1436.519分钟
每日圈数 1.002418 1.002423
详细信息
平衡模式:
三轴稳定
覆盖范围:
全球
运营商:
俄罗斯国家航天集团
运营商所在国:
俄罗斯
制造商(研发单位):
普里克拉德诺伊·梅哈尼基设计局
制造商所在国:
俄罗斯联邦
使用方式:
暂无
卫星简介
地平线卫星(Gorizont)(俄语:Горизонт,Horizon),是1978年至2000年间发射的一系列(共35颗)俄罗斯(前苏联)地球同步通信卫星。该计划的启动是为了开发一个卫星系统来中继信号使全球覆盖1980年的莫斯科奥运会。 最初的四颗卫星是为了这个唯一目的而发射的。 此后,Gorizont系统被集成到YesSSS统一卫星通信系统中,用于中继民用和军用通信。 从1988年起,这些卫星还被用于支持Okean计划。该卫星已退役。
2D轨道图
3D轨道图
轨道高度分析图
轨道倾角分析图
轨道综合分析图
查看轨道综合分析图